Location: Newark
(35.8833°N, 14.5000°E)
Time: 07:27:17
(UTC+00:00)

BEESAT - Pass Details

Date: 14 November 2019
Orbit: 701 x 709 km, 98.6° (Epoch: 14 December)

Event Time Altitude Azimuth Distance (km) Brightness Sun altitude
Rises 16:59:11 0° 5° (N) 3,093 ? -13.1°
Reaches altitude 10° 17:01:31 10° 359° (N) 2,172 ? -13.6°
Maximum altitude 17:06:01 43° 288° (WNW) 977 ? -14.4°
Drops below altitude 10° 17:10:29 10° 217° (SW) 2,162 ? -15.3°
Sets 17:12:49 0° 211° (SSW) 3,078 ? -15.8°
